Tucson, AZ

5:40 PM MST on March 30, 2017 (GMT -0700)
Tucson International

Weather History for KTUS - February, 2013

Change the Weather History Date:

Sunday, February 17, 2013

  Actual Average Record
Temperature  
Mean Temperature 59 °F 56 °F  
Max Temperature 74 °F 69 °F 90 °F (2016)
Min Temperature 43 °F 42 °F 19 °F (1910)
Degree Days  
Heating Degree Days 6 10  
Month to date heating degree days 200 178  
Since 1 July heating degree days 1084 1172  
Cooling Degree Days 0 0  
Month to date cooling degree days 0 0  
Year to date cooling degree days 0 1  
Growing Degree Days 8 (Base 50)    
Moisture  
Dew Point 13 °F    
Average Humidity 19    
Maximum Humidity 31    
Minimum Humidity 6    
Precipitation  
Precipitation 0.00 in 0.04 in 0.69 in (1998)
Month to date precipitation 0.30 0.54  
Year to date precipitation 1.11 1.48  
Snow  
Snow 0.00 in - - ()
Month to date snowfall 0.0  
Snow Depth 0.00 in    
Sea Level Pressure  
Sea Level Pressure 29.89 in    
Wind  
Wind Speed 8 mph (SSW)    
Max Wind Speed 18 mph    
Max Gust Speed 25 mph    
Visibility 10 miles    
Events      
T = Trace of Precipitation, MM = Missing Value Source: NWS Daily Summary

Daily Weather History Graph

Daily Weather History Graph

Search for Another Location

Airport or City:

Trip Planner

Search our weather history database for the weather conditions in past years. The results will help you decide how hot, cold, wet, or windy it might be!

Date:

Astronomy

Feb. 17, 2013 Rise Set
Actual Time 7:03 AM MST 6:12 PM MST
Civil Twilight 6:38 AM MST 6:36 PM MST
Nautical Twilight 6:10 AM MST 7:05 PM MST
Astronomical Twilight 5:41 AM MST 7:34 PM MST
Moon 11:27 AM MST (2/17) 12:44 AM MST (2/17)
Length of Visible Light 11h 58m
Length of Day
11h 08m
Waxing Crescent, 49% of the Moon is Illuminated
Feb 17
Waxing Crescent
Feb 17
First Quarter
Feb 25
Full
Mar 4
Last Quarter
Mar 11
New

Hourly Weather History & Observations

Time (MST) Temp. Windchill Dew Point Humidity Pressure Visibility Wind Dir Wind Speed Gust Speed Precip Events Conditions
12:53 AM 48.9 °F - 16.0 °F 27% 29.96 in 10.0 mi SSE 3.5 mph - N/A   Clear
1:53 AM 51.1 °F - 15.1 °F 24% 29.94 in 10.0 mi SE 4.6 mph - N/A   Clear
2:53 AM 50.0 °F - 14.0 °F 24% 29.92 in 10.0 mi ESE 9.2 mph - N/A   Clear
3:53 AM 50.0 °F - 12.9 °F 23% 29.91 in 10.0 mi ESE 8.1 mph - N/A   Clear
4:53 AM 48.9 °F - 14.0 °F 25% 29.90 in 10.0 mi ESE 11.5 mph - N/A   Clear
5:53 AM 48.0 °F - 12.9 °F 24% 29.90 in 10.0 mi ESE 8.1 mph - N/A   Clear
6:53 AM 44.1 °F 37.4 °F 16.0 °F 32% 29.91 in 10.0 mi SE 13.8 mph - N/A   Clear
7:53 AM 48.0 °F - 15.1 °F 27% 29.92 in 10.0 mi SSE 11.5 mph - N/A   Clear
8:53 AM 52.0 °F - 16.0 °F 24% 29.93 in 10.0 mi SE 11.5 mph - N/A   Clear
9:53 AM 59.0 °F - 12.9 °F 16% 29.91 in 10.0 mi SE 9.2 mph - N/A   Clear
10:53 AM 63.0 °F - 15.1 °F 16% 29.91 in 10.0 mi South 3.5 mph - N/A   Clear
11:53 AM 69.1 °F - 14.0 °F 12% 29.88 in 10.0 mi NW 6.9 mph - N/A   Clear
12:53 PM 71.1 °F - 12.0 °F 10% 29.85 in 10.0 mi WSW 8.1 mph 17.3 mph N/A   Clear
1:53 PM 73.0 °F - 7.0 °F 8% 29.82 in 10.0 mi West 10.4 mph - N/A   Clear
2:53 PM 73.0 °F - 3.0 °F 6% 29.81 in 10.0 mi WSW 8.1 mph - N/A   Clear
3:53 PM 73.0 °F - 7.0 °F 8% 29.80 in 10.0 mi West 12.7 mph 21.9 mph N/A   Clear
4:53 PM 71.6 °F - 8.6 °F 9% 29.89 in 10.0 mi West 16.1 mph 23.0 mph N/A   Clear
5:53 PM 68.0 °F - 7.0 °F 9% 29.83 in 10.0 mi West 11.5 mph - N/A   Clear
6:53 PM 63.0 °F - 12.0 °F 14% 29.87 in 10.0 mi West 8.1 mph - N/A   Clear
7:53 PM 61.0 °F - 14.0 °F 16% 29.88 in 10.0 mi WNW 4.6 mph - N/A   Clear
8:53 PM 57.0 °F - 17.1 °F 21% 29.91 in 10.0 mi West 8.1 mph - N/A   Clear
10:53 PM 52.0 °F - 18.0 °F 26% 29.92 in 10.0 mi SW 4.6 mph - N/A   Clear
11:53 PM 48.0 °F - 21.0 °F 34% 29.92 in 10.0 mi Variable 5.8 mph - N/A   Clear